Regional Weather Roundup
Issued by NWS Cleveland, OH

Home | Current Version | Previous Version | Graphics & Text | Print | Product List | Glossary On
Versions: 1 2 3 4 5 6 7 8 9 10 11 12 13 14 15 16 17 18 19 20 21 22 23 24 25 26 27 28 29 30 31 32 33 34 35 36 37 38 39 40 41 42 43 44 45 46 47 48 49 50
000
ASUS41 KCLE 281702
RWRCLE
OHIO REGIONAL WEATHER ROUNDUP
NATIONAL WEATHER SERVICE CLEVELAND, OH
100 PM EDT SAT MAR 28 2015

NOTE: "FAIR" INDICATES FEW OR NO CLOUDS BELOW 12,000 FEET WITH NO
SIGNIFICANT WEATHER AND/OR OBSTRUCTIONS TO VISIBILITY.

OHZ001>008-015>018-024>027-034-035-043-044-281800-
   NORTHWEST OHIO

CITY           SKY/WX    TMP DP  RH WIND       PRES   REMARKS
DEFIANCE       SUNNY     30  11  45 N10       30.32R WCI  21
FINDLAY        PTSUNNY   28  10  46 NE8       30.29R WCI  20
TOLEDO EXPRESS MOSUNNY   28   9  44 N6        30.30R WCI  22
TOLEDO EXEC    SUNNY     28  10  46 NE6       30.31S WCI  22
LIMA           CLOUDY    28  12  51 N8        30.28S WCI  20
$$

OHZ009>014-019>023-028>033-038-089-281800-
   NORTHEAST OHIO

CITY           SKY/WX    TMP DP  RH WIND       PRES   REMARKS
CLE-HOPKINS    MOSUNNY   22   9  57 N12G22    30.29R WCI  10
CLE-LAKEFRONT  MOSUNNY   23   9  55 N12       30.28R WCI  12
CUY CO. ARPT   PTSUNNY   23  12  63 N14G23    30.25R WCI  11
LORAIN-ELYRIA  SUNNY     22  10  60 N15       30.28R WCI   9
ASHTABULA      PTSUNNY   20   9  62 NW10G18   30.21S WCI   9
AKRON-CANTON   MOSUNNY   26   8  46 N13G20    30.19R WCI  15
WOOSTER        SUNNY     24  10  55 NW15G23   30.22R WCI  11
MANSFIELD      CLOUDY    22   8  55 N15       30.23R WCI   9
YOUNGSTOWN     CLOUDY    21   9  59 NW16      30.17S WCI   7
$$

OHZ042-051>053-060>062-070>072-077>081-281800-
  SOUTHWEST OHIO

CITY           SKY/WX    TMP DP  RH WIND       PRES   REMARKS
CINC-COVINGTON MOSUNNY   32  12  43 N10G16    30.28R WCI  24
CINC-LUNKEN    SUNNY     32  12  43 N7        30.31S WCI  26
HAMILTON       MOSUNNY   31  13  47 NW10      30.32R WCI  22
DAYTON         MOSUNNY   28  10  46 N6        30.29S WCI  22
WRIGHT-PAT AFB NOT AVBL
DAYTON GENERAL SUNNY     29  10  45 N9        30.27S WCI  20
WILMINGTON     MOSUNNY   27  10  49 N12G18    30.27R WCI  17
$$

OHZ036-037-039>041-045>050-054>059-063>069-073>076-082>088-281800-
  CENTRAL AND SOUTHEAST OHIO

CITY           SKY/WX    TMP DP  RH WIND       PRES   REMARKS
COLUMBUS       PTSUNNY   25   9  50 N9G24     30.27S WCI  15
OSU AIRPORT    PTSUNNY   27   9  46 N9        30.27R WCI  18
BOLTON FIELD   PTSUNNY   27   9  46 NW10      30.27S WCI  17
RICKENBACK AFB NOT AVBL
NEWARK         PTSUNNY   27  13  55 N10G18    30.25S WCI  17
MARION         PTSUNNY   26  10  50 NE13      30.27R WCI  15
LANCASTER      PTSUNNY   27  11  51 N10G16    30.26F WCI  17
ZANESVILLE     CLOUDY    25  13  60 NW12      30.23S WCI  14
NEW PHILLY     SUNNY     28   5  37 NW13G20   30.21S WCI  17
$$



USA.gov is the U.S. government's official web portal to all federal, state and local government web resources and services.